Volver al catálogo

THOR BURNER 2A DEB

ActivoPO
NORAD 28593·DEBRIS·🇺🇸 United States

Lanzado Mar 16, 1974 desde Vandenberg Space Force Base

Loading…

Próximos Pases (próximas 24 horas)

TLE

ActualizadoSource: Space-Track

Época: Sep 14, 2026, 14:39 UTC

1 28593U 74015E   26257.61073719  .00000793  00000-0  26052-3 0  9997
2 28593  99.0617 311.9789 0056880 211.5835 148.1934 14.40364390128006

Sigue THOR BURNER 2A DEB en tiempo real con AllMySat

Download on the App Store